Temp
41 38 37 41 40 43 37 34 33 34 39 35 33 34 37 31 32 32 34 34 35 36 38 37 36 35 33 34 34 35 36 37 37 36 37 37 34 34 33 35 38 39 39 40
37 35 42 45 46 44 40 33 32 34 36 35 31 33 37 30 31 34 34 35 35 35 36 35 34 34 33 32 33 34 34 35 36 36 36 36 34 32 34 35 37 38 38 39
34 37 45 41 38 40 40 39 32 34 33 33 28 29 33 31 31 32 36 37 37 35 34 33 33 33 33 32 32 32 33 35 34 34 34 35 36 34 35 34 34 35 37 37
39 43 41 40 37 39 33 39 38 34 32 28 33 27 30 32 30 29 32 33 35 35 36 34 33 32 32 32 32 32 33 33 33 34 33 33 36 33 32 32 33 33 35 35
36 37 37 36 40 41 37 42 38 33 31 27 30 28 30 28 32 33 30 33 35 36 35 32 32 33 32 30 29 30 31 31 32 33 33 32 31 32 32 32 32 33 33 34
39 45 44 43 44 45 44 41 37 34 32 25 32 28 33 34 36 36 35 36 37 36 34 32 33 33 31 30 29 28 29 30 31 32 32 31 30 31 31 31 30 31 31 32
37 39 43 46 39 43 41 34 27 23 22 23 32 26 34 36 43 47 47 41 38 37 33 29 28 28 28 28 27 28 28 27 29 30 30 31 31 32 32 31 30 30 29 29
30 29 39 43 42 36 36 35 29 21 21 22 29 24 32 40 45 44 48 41 36 34 31 29 28 27 26 28 27 29 27 26 28 28 29 30 31 30 30 29 28 28 26 27
31 30 40 43 46 45 34 30 38 30 32 26 25 27 34 33 34 33 37 34 32 30 28 27 25 25 26 27 28 27 27 26 26 25 25 24 26 27 27 27 28 27 28 28
36 29 36 39 43 43 39 40 29 29 21 21 24 24 29 28 32 35 31 31 28 27 26 23 23 24 25 27 27 27 27 25 25 25 24 24 24 24 25 26 25 25 25 26
36 32 28 36 35 35 35 32 32 33 31 24 22 27 27 26 25 25 29 25 24 22 20 20 21 23 24 26 25 24 24 24 23 22 20 20 21 22 22 21 22 22 23 23
35 31 20 26 38 39 37 34 33 25 25 27 26 27 28 26 25 27 23 23 20 20 20 19 19 20 22 23 23 22 22 20 20 20 19 18 19 19 18 18 19 21 20 21
34 27 20 22 28 34 29 28 28 29 28 20 21 25 28 29 25 23 18 18 20 17 17 17 18 17 18 20 20 19 18 18 18 18 17 17 17 17 16 17 18 19 19 19
36 25 21 18 22 25 24 26 28 26 17 18 22 22 31 32 33 23 18 17 17 16 16 14 13 14 16 18 17 17 16 17 17 16 16 15 15 15 15 16 16 17 17 17
31 22 23 27 28 27 25 25 27 23 22 16 19 22 28 32 33 26 20 15 15 14 13 12 8 10 14 15 16 15 15 15 15 14 13 12 13 14 14 14 14 15 15 14
25 21 24 19 26 25 22 23 22 24 24 22 22 21 31 21 20 18 15 15 14 13 14 12 11 9 12 14 14 14 14 13 14 12 11 12 12 13 13 13 14 14 12 12
23 21 17 12 15 14 5 13 23 25 27 25 20 20 19 21 22 17 15 15 15 14 13 12 11 9 12 13 14 12 12 13 12 12 12 12 13 13 13 14 14 14 13 13
17 14 10 1 6 -1 14 13 15 18 20 18 18 14 11 13 13 14 15 17 15 15 14 13 12 11 12 12 12 12 13 12 12 12 13 14 14 14 15 15 15 15 15 15
24 15 1 -4 -2 3 13 11 10 11 15 3 3 8 8 7 12 10 13 16 17 16 14 13 12 11 11 11 11 11 11 12 12 12 13 15 16 15 16 15 15 16 17 17
21 17 8 -6 -6 -6 7 4 -0 0 4 4 1 2 3 9 8 8 9 14 13 14 12 10 11 11 10 11 12 12 12 13 12 14 15 17 18 17 16 16 16 17 18 18
8 4 7 3 6 6 0 -3 -3 3 8 1 1 3 5 8 6 2 6 10 12 11 10 11 11 10 10 12 13 11 12 13 16 17 17 18 19 17 17 16 16 16 16 15
6 -0 5 -1 -3 1 7 8 11 12 7 5 -1 -2 4 7 7 7 6 8 10 9 12 11 10 10 12 13 13 12 12 15 17 18 18 17 17 19 18 16 16 15 14 13
6 6 3 8 6 9 8 12 -1 -0 -1 -2 -1 0 3 5 7 7 8 8 10 11 10 11 10 10 12 13 14 13 14 15 15 15 15 15 17 17 17 16 14 13 13 12
2 -6 1 3 6 2 -3 -6 -7 -8 -4 -5 -3 3 6 3 7 7 9 9 9 10 10 11 11 10 11 14 15 14 15 15 14 13 12 13 14 15 16 16 15 13 10 9
2 1 -4 -2 5 1 -9 -10 -5 -9 -8 -4 1 5 5 8 8 8 8 9 9 10 11 12 12 12 12 13 13 14 14 14 12 11 11 13 15 13 13 14 13 13 13 15
-2 5 3 7 -2 -2 -2 -5 -9 -7 -3 1 5 5 7 10 8 10 9 10 10 11 12 12 11 11 11 12 12 12 13 13 12 11 12 11 11 11 12 11 11 23 21 24
MSLP
1013.91 1013.97 1013.16 1013.68 1014.14 1014.26 1014.69 1014.96 1015.62 1015.58 1015.89 1016.54 1017.02 1017.50 1018.20 1019.54 1020.50 1020.70 1020.83 1021.00 1021.13 1021.61 1022.40 1023.06 1023.91 1024.42 1024.99 1025.20 1025.65 1025.55 1026.29 1025.99 1025.94 1026.60 1027.10 1027.87 1027.80 1027.89 1027.80 1027.67 1028.04 1027.67 1027.59 1027.46
1014.13 1013.41 1013.21 1013.32 1013.50 1013.97 1014.31 1014.87 1014.93 1015.46 1015.83 1016.52 1016.93 1017.30 1017.50 1018.63 1018.90 1018.94 1019.19 1019.79 1020.06 1020.90 1021.79 1022.66 1023.38 1024.04 1024.87 1024.87 1025.14 1025.61 1025.70 1025.85 1026.52 1026.24 1027.50 1027.44 1028.00 1028.77 1028.21 1028.14 1028.44 1028.26 1027.77 1027.90
1013.22 1012.79 1012.95 1013.38 1013.44 1013.87 1014.05 1014.38 1015.09 1015.40 1016.02 1016.67 1016.90 1016.77 1016.76 1017.13 1017.68 1018.05 1018.09 1018.49 1019.10 1019.56 1020.64 1021.62 1022.61 1023.59 1024.60 1024.46 1024.86 1025.50 1025.76 1025.92 1026.49 1026.48 1026.73 1027.75 1028.16 1028.82 1028.38 1028.61 1029.06 1028.90 1028.47 1028.44
1013.14 1012.52 1012.63 1012.97 1013.11 1013.46 1013.66 1013.77 1014.41 1015.24 1016.03 1016.33 1016.29 1015.48 1015.51 1015.84 1016.45 1016.66 1016.81 1017.34 1017.70 1018.68 1019.64 1020.57 1021.39 1023.05 1023.80 1024.36 1024.84 1025.33 1025.58 1026.20 1025.27 1026.75 1026.54 1027.68 1028.38 1028.73 1028.60 1028.84 1029.41 1029.13 1029.15 1028.99
1012.71 1012.40 1012.43 1012.47 1011.80 1012.93 1012.84 1013.30 1013.84 1014.65 1015.37 1015.68 1016.04 1015.88 1013.40 1014.13 1014.12 1013.93 1015.09 1015.45 1016.15 1017.15 1018.25 1019.42 1020.60 1021.96 1023.42 1024.32 1024.84 1025.27 1025.81 1026.01 1026.26 1026.66 1026.51 1027.22 1028.44 1029.02 1029.01 1029.17 1029.44 1029.89 1029.72 1029.22
1012.49 1012.13 1011.93 1011.58 1011.67 1012.00 1012.41 1013.12 1013.84 1014.20 1014.87 1014.01 1014.05 1014.39 1011.71 1012.64 1012.38 1012.73 1012.83 1013.48 1014.28 1015.54 1017.00 1018.63 1020.11 1021.47 1022.69 1023.78 1024.77 1025.32 1025.80 1026.28 1026.89 1027.23 1026.91 1027.18 1028.47 1029.16 1029.31 1029.15 1029.58 1030.20 1030.24 1029.95
1011.80 1011.42 1011.19 1011.12 1011.63 1011.93 1012.37 1012.87 1013.34 1013.52 1013.37 1012.25 1012.02 1012.82 1011.05 1010.31 1010.09 1009.99 1010.54 1011.23 1012.38 1014.48 1016.48 1018.08 1019.53 1021.07 1022.26 1023.40 1024.49 1025.27 1025.86 1026.44 1026.84 1027.21 1027.34 1027.50 1028.70 1029.37 1029.41 1029.30 1029.93 1030.13 1030.53 1030.86
1011.77 1010.93 1010.26 1009.92 1010.16 1010.43 1011.23 1011.75 1011.85 1011.73 1011.87 1011.64 1011.65 1011.08 1009.81 1008.89 1008.89 1009.29 1009.75 1010.57 1012.06 1014.14 1016.11 1017.76 1019.15 1020.43 1021.84 1023.08 1024.10 1024.89 1025.64 1026.23 1026.66 1027.61 1027.42 1028.17 1028.94 1029.55 1030.25 1030.07 1030.12 1030.58 1031.07 1031.34
1011.42 1010.69 1009.84 1009.61 1009.43 1010.09 1010.80 1010.83 1010.58 1011.09 1011.21 1011.34 1010.94 1010.47 1009.47 1009.30 1009.59 1010.05 1010.58 1011.45 1012.81 1014.64 1016.49 1018.05 1019.62 1020.79 1022.08 1022.92 1023.76 1024.60 1025.44 1026.21 1026.94 1027.99 1028.56 1028.94 1029.50 1029.51 1030.70 1031.13 1031.05 1031.02 1031.40 1031.92
1011.73 1011.29 1010.60 1010.23 1009.97 1009.94 1010.12 1010.44 1010.93 1010.98 1010.72 1010.39 1010.27 1010.66 1010.46 1010.41 1010.68 1010.64 1011.75 1012.55 1013.96 1015.53 1017.20 1018.82 1020.11 1021.29 1022.06 1022.90 1023.93 1024.81 1025.64 1026.54 1027.35 1028.41 1029.19 1029.61 1030.04 1030.11 1031.00 1031.58 1031.96 1031.68 1031.80 1032.53
1012.62 1012.65 1011.81 1011.11 1010.61 1010.29 1010.90 1010.78 1011.10 1011.00 1010.75 1010.25 1010.54 1010.96 1011.94 1012.20 1012.77 1013.40 1013.74 1014.77 1016.20 1017.46 1018.65 1019.59 1020.67 1021.60 1022.37 1023.39 1024.27 1025.09 1026.03 1026.90 1027.91 1029.09 1029.57 1030.36 1030.47 1031.79 1031.82 1032.56 1033.00 1032.52 1032.60 1033.37
1013.67 1013.38 1013.04 1012.38 1011.26 1011.05 1011.13 1011.48 1012.21 1012.56 1011.58 1011.09 1011.59 1011.44 1012.16 1013.29 1013.90 1014.67 1015.34 1016.71 1017.72 1018.81 1019.92 1020.91 1021.47 1022.14 1022.99 1023.86 1024.79 1025.55 1026.48 1027.49 1028.65 1029.41 1029.83 1030.80 1031.58 1032.16 1033.01 1033.25 1033.83 1033.77 1033.66 1034.14
1014.72 1014.28 1013.92 1013.25 1012.69 1012.42 1012.64 1013.57 1013.90 1013.88 1013.19 1012.69 1012.83 1012.30 1012.69 1013.19 1013.83 1015.59 1016.73 1017.93 1018.93 1020.41 1021.13 1022.00 1022.85 1023.33 1023.82 1024.63 1025.56 1026.46 1027.25 1028.15 1029.02 1029.80 1030.53 1031.30 1032.42 1032.86 1033.60 1033.81 1034.20 1034.35 1034.44 1034.85
1015.74 1015.58 1015.71 1015.29 1014.75 1014.53 1014.11 1014.11 1014.40 1014.69 1014.63 1014.16 1013.82 1013.48 1012.75 1013.63 1014.21 1015.74 1017.30 1018.47 1019.79 1020.65 1021.79 1022.71 1023.77 1024.43 1024.87 1025.56 1026.28 1027.00 1027.83 1028.61 1029.47 1030.19 1030.94 1031.90 1032.88 1033.57 1033.99 1034.57 1035.01 1034.87 1035.22 1035.51
1016.36 1016.38 1016.35 1016.06 1015.94 1015.78 1015.45 1014.97 1014.76 1015.23 1015.16 1015.07 1014.59 1014.26 1014.05 1014.10 1014.72 1015.70 1017.27 1018.84 1019.94 1021.12 1022.08 1022.91 1024.09 1024.91 1025.66 1026.31 1027.02 1027.75 1028.35 1028.98 1029.69 1030.46 1031.51 1032.57 1033.32 1034.08 1034.81 1035.41 1035.59 1035.62 1036.10 1036.44
1017.33 1017.15 1017.37 1017.11 1017.03 1016.87 1016.56 1016.34 1016.10 1015.64 1015.62 1015.33 1015.42 1014.70 1014.99 1014.87 1015.46 1016.70 1017.61 1018.99 1019.92 1021.02 1022.01 1022.97 1024.07 1025.27 1025.79 1026.44 1027.21 1028.08 1028.86 1029.48 1030.21 1031.21 1032.20 1032.98 1033.79 1034.69 1035.35 1035.55 1036.03 1036.23 1036.96 1037.28
1018.42 1018.61 1019.15 1018.60 1018.90 1018.83 1018.26 1017.73 1016.96 1016.27 1015.82 1015.86 1016.23 1016.36 1016.61 1016.63 1017.14 1017.66 1018.40 1019.16 1020.06 1021.09 1022.23 1022.99 1023.98 1024.94 1026.11 1026.85 1027.29 1028.42 1029.36 1030.28 1031.04 1031.79 1032.60 1033.40 1034.15 1034.79 1035.32 1035.70 1036.38 1036.87 1037.15 1037.47
1018.86 1019.82 1020.83 1021.38 1021.29 1020.52 1018.79 1018.41 1018.41 1018.31 1017.76 1017.56 1017.90 1018.37 1018.77 1018.82 1018.63 1018.57 1018.53 1018.98 1019.76 1020.82 1022.08 1023.38 1024.23 1025.10 1026.41 1027.23 1027.96 1028.86 1029.80 1030.68 1031.56 1032.34 1032.99 1033.62 1034.16 1034.74 1035.49 1036.05 1036.47 1036.86 1037.28 1037.74
1019.13 1020.72 1022.19 1023.83 1023.66 1021.79 1020.88 1020.53 1021.15 1020.79 1019.91 1020.16 1020.63 1020.45 1020.13 1019.89 1019.63 1019.46 1019.33 1019.46 1019.87 1020.65 1021.91 1023.48 1024.54 1025.47 1026.48 1027.63 1028.50 1029.30 1030.28 1031.11 1031.79 1032.53 1033.15 1033.70 1034.23 1034.85 1035.45 1036.02 1036.55 1037.05 1037.45 1037.96
1020.19 1021.05 1022.73 1024.65 1024.90 1023.87 1022.52 1022.70 1022.88 1023.14 1022.66 1022.48 1022.76 1022.63 1022.23 1021.24 1021.19 1020.69 1020.50 1020.41 1021.02 1021.74 1022.61 1023.61 1024.87 1025.83 1026.95 1028.03 1028.69 1029.48 1030.60 1031.53 1032.10 1032.62 1033.27 1033.89 1034.39 1034.90 1035.53 1036.18 1036.79 1037.30 1037.68 1038.11
1022.40 1022.82 1023.66 1023.99 1024.15 1023.67 1023.82 1024.32 1024.52 1024.67 1024.64 1023.93 1024.25 1023.91 1023.28 1022.80 1022.24 1021.71 1021.50 1021.76 1021.99 1022.48 1023.40 1024.26 1025.20 1025.78 1027.15 1028.24 1029.21 1030.07 1030.68 1031.68 1032.42 1032.72 1033.39 1034.06 1034.70 1035.15 1035.76 1036.59 1037.26 1037.69 1038.15 1038.66
1024.31 1024.47 1024.62 1024.41 1024.40 1023.91 1023.73 1025.06 1025.66 1025.02 1024.84 1024.93 1024.92 1024.34 1023.84 1023.08 1022.62 1022.45 1022.49 1022.68 1022.96 1023.58 1024.02 1025.14 1025.67 1026.19 1027.66 1028.42 1029.24 1030.15 1031.17 1031.93 1032.71 1032.95 1033.39 1034.30 1035.11 1035.73 1036.30 1036.85 1037.63 1038.17 1038.60 1039.04
1025.41 1025.20 1025.22 1025.04 1023.90 1023.55 1023.99 1024.35 1024.95 1025.46 1025.66 1025.37 1025.12 1024.61 1023.89 1023.43 1023.11 1023.12 1023.33 1023.41 1023.74 1024.33 1024.57 1025.70 1026.05 1026.86 1028.06 1028.90 1029.20 1030.05 1031.33 1032.24 1032.97 1033.51 1033.97 1034.96 1035.62 1036.21 1036.71 1037.22 1037.93 1038.51 1038.88 1039.24
1026.01 1026.03 1026.29 1025.93 1024.61 1024.58 1024.88 1025.42 1025.84 1025.99 1026.08 1025.34 1024.90 1024.39 1023.81 1023.58 1023.49 1023.57 1023.86 1024.08 1024.43 1024.89 1025.23 1026.21 1026.69 1027.46 1028.34 1029.27 1029.76 1030.02 1031.49 1032.31 1033.38 1034.00 1034.69 1035.52 1035.98 1036.53 1037.09 1037.64 1038.20 1038.69 1039.18 1039.60
1027.31 1027.34 1026.98 1026.44 1025.55 1025.37 1025.68 1026.05 1026.11 1025.97 1025.60 1025.06 1024.47 1023.97 1023.61 1023.56 1023.73 1023.80 1024.33 1024.59 1024.92 1025.25 1026.07 1026.75 1027.34 1028.00 1028.66 1029.64 1030.42 1030.87 1031.91 1032.64 1033.81 1034.52 1035.26 1035.84 1036.26 1036.91 1037.51 1038.09 1038.54 1038.95 1039.45 1039.41
1027.60 1027.03 1027.48 1026.67 1026.45 1026.86 1026.44 1026.25 1026.12 1025.97 1025.24 1024.55 1024.14 1023.80 1023.69 1023.60 1023.78 1024.07 1024.66 1024.97 1025.25 1026.05 1026.48 1027.25 1028.08 1028.69 1029.42 1030.29 1031.07 1031.81 1032.39 1033.22 1034.02 1034.81 1035.47 1036.15 1036.81 1037.38 1037.95 1038.35 1038.49 1038.08 1038.64 1038.60
Wind_Speed
3 4 16 12 10 5 6 6 7 4 6 6 9 8 8 9 9 11 12 13 13 13 8 10 10 9 6 6 6 7 6 7 5 3 3 1 3 2 4 5 7 8 7 6
3 14 11 7 10 11 5 5 8 1 3 6 2 10 8 11 10 14 16 15 15 11 12 12 11 10 10 7 6 6 7 7 4 4 2 3 3 2 3 5 6 7 8 8
7 4 10 6 4 9 10 15 5 5 3 1 1 7 8 7 6 7 13 11 13 17 17 15 14 12 10 9 8 7 6 9 6 7 6 4 5 1 2 4 4 7 8 8
6 5 6 9 10 11 16 7 7 6 5 8 6 11 7 6 10 12 12 14 16 16 15 14 15 14 11 8 6 6 6 3 7 8 7 5 1 2 2 4 4 6 8 8
5 5 6 8 19 9 12 9 10 6 8 2 3 5 8 3 10 12 14 18 19 17 17 18 18 15 12 10 7 6 6 5 4 6 8 6 4 4 4 5 8 7 7 10
6 2 4 8 5 13 3 3 3 4 4 12 15 12 17 11 10 6 6 17 19 18 18 16 15 16 14 12 9 8 8 7 6 4 8 9 8 8 6 6 6 5 5 7
4 10 5 5 4 1 8 5 4 5 6 8 12 11 18 7 14 22 19 15 17 16 17 17 19 16 14 14 12 9 10 8 6 8 6 9 9 6 7 8 6 7 6 6
5 7 11 8 16 10 14 11 7 7 5 5 2 9 12 12 17 12 16 3 12 16 16 18 19 17 16 16 13 11 11 10 9 7 10 9 9 5 4 6 7 6 6 7
5 7 1 4 6 10 4 11 14 11 12 6 5 7 8 5 7 4 9 5 9 13 15 17 15 14 14 14 13 13 12 11 11 10 8 8 8 10 8 7 7 7 8 8
2 7 1 4 2 4 12 4 3 5 6 9 6 5 9 3 10 9 7 9 7 11 14 14 14 15 12 14 12 13 12 12 12 11 9 9 8 9 8 6 7 9 10 9
1 3 5 2 4 6 4 2 4 4 5 3 2 3 4 5 6 8 5 7 6 9 11 13 13 13 14 13 13 13 13 14 12 11 10 11 11 8 10 8 6 8 11 9
3 3 3 8 8 1 1 4 2 5 6 4 7 4 2 5 5 7 5 6 8 9 10 10 12 14 14 14 13 13 13 13 11 11 12 11 11 10 10 9 7 7 10 9
5 3 6 9 3 5 4 3 1 6 3 6 6 3 5 1 5 4 4 5 9 9 10 11 11 11 12 13 13 12 12 12 11 12 12 12 10 10 9 9 8 8 10 9
4 1 5 9 8 4 11 1 2 4 4 6 9 12 20 6 8 3 5 7 8 11 11 9 8 9 10 12 12 12 12 12 12 12 12 12 10 10 9 9 8 10 9 10
2 6 4 10 12 13 14 17 12 9 9 9 7 15 16 14 8 5 8 9 12 12 12 12 9 9 10 11 11 11 12 12 12 13 12 11 10 10 9 9 9 10 9 9
0 10 8 9 11 11 15 11 10 13 12 13 15 22 14 3 3 1 7 11 12 13 14 14 13 11 12 13 12 12 11 12 13 13 12 11 11 10 10 10 10 10 8 7
3 3 2 13 3 5 6 9 16 11 9 8 11 8 4 5 5 2 7 10 11 12 13 15 14 13 11 11 13 12 12 12 12 13 12 12 11 11 10 10 9 9 9 8
5 2 1 4 3 8 7 3 1 3 9 6 7 4 5 5 3 4 3 10 11 13 14 13 13 13 11 11 12 13 12 13 13 12 12 11 12 12 10 10 10 9 8 8
12 3 2 3 5 7 10 4 2 3 7 3 3 6 5 5 4 3 1 3 9 12 12 11 12 13 14 13 13 13 12 12 12 12 11 11 11 12 11 11 10 9 9 8
4 4 4 3 3 6 8 3 1 0 5 2 1 5 6 6 3 4 3 8 10 11 13 15 15 15 14 13 13 15 13 11 11 12 11 11 11 11 11 10 10 7 7 9
3 3 6 5 6 7 4 4 2 4 5 3 1 4 4 3 4 3 4 6 10 13 16 16 16 16 15 14 13 13 13 12 11 12 12 11 11 11 11 10 8 8 8 8
2 1 3 1 1 6 7 3 3 1 2 3 3 4 4 3 2 3 4 7 11 13 16 15 15 16 14 14 15 14 12 12 12 13 14 13 12 9 8 11 8 9 8 8
3 6 4 6 6 1 6 4 2 4 5 4 2 4 4 3 1 3 5 8 11 12 13 12 15 16 13 13 15 16 14 13 12 12 13 12 11 10 9 9 9 7 6 6
5 1 3 5 7 7 3 4 3 4 5 5 5 7 3 4 5 7 7 9 10 11 12 12 15 15 15 12 12 16 14 13 12 12 12 10 10 10 8 7 7 6 5 5
5 2 3 7 10 7 3 5 4 3 4 4 5 4 4 7 7 8 9 10 10 11 12 13 13 13 14 13 13 13 13 13 12 11 10 10 8 9 8 7 5 5 3 6
6 7 5 8 5 4 6 4 3 3 4 4 3 2 2 7 10 11 9 9 11 12 12 13 12 14 13 13 12 12 11 12 12 11 9 8 8 7 6 5 3 12 11 11
Wind_Direction
239 187 206 193 204 215 180 184 199 227 179 151 204 244 209 188 211 223 214 206 206 213 194 178 183 170 159 166 171 143 153 123 125 123 101 116 60 61 48 41 30 38 31 33
132 230 216 209 203 220 191 207 228 192 158 174 120 255 249 177 213 215 212 209 209 192 183 184 182 178 188 173 169 163 148 128 145 105 149 108 107 45 72 68 39 45 44 42
190 212 187 199 177 225 237 232 203 215 129 259 10 263 249 222 243 225 223 216 208 198 191 183 182 185 181 176 170 168 168 154 150 112 111 91 94 196 78 58 38 32 49 47
239 216 189 200 222 191 239 190 187 172 175 241 170 274 225 210 234 224 219 211 211 202 195 184 177 184 179 163 147 154 138 147 128 153 119 153 213 187 104 103 91 55 50 55
232 191 184 202 222 182 245 179 198 195 215 171 188 258 254 190 242 230 213 219 217 201 188 183 180 173 166 152 151 139 134 123 107 155 132 124 122 104 123 109 95 77 58 56
243 229 193 226 180 198 179 100 348 152 198 234 225 211 253 233 249 260 216 223 217 197 186 175 166 159 157 155 153 150 150 143 143 134 136 122 132 148 142 120 104 88 66 62
187 220 208 186 173 261 191 160 231 228 199 241 210 203 239 268 228 228 234 220 208 187 174 164 162 163 154 155 155 150 147 136 146 129 100 118 135 145 136 118 118 111 88 69
221 267 188 197 204 189 199 200 218 258 211 234 174 218 246 233 213 218 236 280 160 172 171 171 165 158 156 156 154 152 147 134 120 125 119 123 117 106 74 105 106 97 94 85
220 242 200 167 230 196 175 213 231 256 243 260 214 286 303 212 241 243 223 182 160 158 162 159 153 152 152 149 151 148 141 130 121 116 108 95 105 106 101 88 95 102 99 92
308 264 228 296 78 248 205 159 185 199 240 244 193 227 246 216 249 239 226 210 143 138 142 141 147 150 145 143 138 134 130 128 123 118 114 104 95 90 96 97 91 97 89 89
75 257 285 26 208 224 146 265 244 275 239 281 290 210 31 327 332 316 337 87 111 124 135 142 142 139 135 133 134 129 126 124 120 116 114 118 98 97 86 86 85 82 90 88
33 317 281 232 262 299 9 220 253 280 302 320 338 202 329 288 11 336 73 96 106 122 130 131 133 133 136 134 132 130 124 119 119 116 110 104 102 100 99 94 92 93 92 87
354 315 327 329 351 28 45 38 300 294 303 265 258 258 199 41 45 9 113 133 132 121 123 128 133 136 136 136 132 126 123 119 118 118 115 105 103 98 104 98 96 92 90 88
305 262 224 257 264 288 289 250 159 183 213 269 266 304 304 314 312 203 184 149 146 144 140 133 127 131 133 134 133 129 125 123 123 118 114 111 109 107 99 99 97 93 91 93
226 255 248 250 254 263 263 282 276 235 246 243 266 259 272 275 277 206 178 152 152 159 156 147 132 129 132 131 130 125 120 120 120 115 113 111 108 104 107 107 99 94 93 92
268 269 277 268 268 255 256 255 271 270 254 251 249 264 251 321 43 127 170 171 171 170 166 149 143 140 140 140 133 125 122 121 120 117 117 117 115 115 116 110 106 101 99 95
228 235 250 268 328 346 316 217 234 245 234 230 250 240 357 323 333 231 183 184 178 172 169 162 155 144 141 140 134 130 126 123 124 125 127 126 126 122 119 114 115 114 105 99
235 132 79 262 21 260 256 286 294 275 274 296 307 327 295 284 303 310 213 183 170 166 161 155 146 132 130 127 119 123 125 126 127 126 127 129 127 122 122 119 113 108 104 99
212 171 259 178 215 308 326 324 336 148 287 177 256 301 294 298 297 316 27 139 166 157 145 145 137 129 124 122 125 120 120 124 126 129 130 130 129 127 124 117 115 115 111 100
70 123 138 87 184 228 240 314 53 153 291 333 220 297 308 344 340 277 342 113 116 128 134 131 130 123 121 126 127 123 123 128 131 133 130 128 126 120 117 117 114 108 107 106
352 12 223 236 256 274 275 269 323 111 273 294 246 274 300 281 232 231 93 103 125 134 136 131 134 129 129 128 130 127 128 130 133 126 122 120 116 114 113 111 112 110 106 103
206 211 272 8 252 261 188 118 226 200 220 249 252 252 277 262 10 74 101 123 128 135 139 136 133 127 131 132 132 128 125 128 132 130 121 116 115 123 119 115 111 109 111 106
262 193 220 194 243 333 205 235 184 165 212 257 227 278 261 164 111 112 123 125 136 134 129 135 131 127 132 138 139 130 129 130 127 121 118 123 120 121 122 120 119 113 105 103
293 164 207 39 281 254 256 299 248 193 221 236 240 263 221 140 128 122 126 121 123 129 125 132 130 130 133 136 133 124 129 126 127 123 120 126 123 121 118 117 117 115 113 108
198 98 202 264 279 311 303 239 226 260 255 262 254 212 156 141 142 132 130 127 127 122 130 132 132 131 124 123 124 125 128 125 125 121 125 135 121 119 116 111 122 122 125 135
186 207 183 259 236 194 261 273 246 243 251 241 180 95 116 147 138 135 129 130 129 133 130 124 120 118 118 118 117 119 120 127 129 129 125 126 122 118 115 118 99 138 158 141